LXCRY ELLX-ELLX

Flight info

Callsign LXCRY
Flight time 0h 56m
Altitude 11000
Route DIK
Aircraft CL60/M-SBDE1E2E3FGHIJ1J4J5J7M3RWXYZ/LB1V1D1

Departure

Time 2026-05-06 18:42
Airport Luxembourg-Findel International Airport (ELLX)

Arrival

Time 2026-05-06 19:38
Airport Luxembourg-Findel International Airport (ELLX)
Time Latitude Longitude Altitude Speed Heading
2026-05-06 18:14 49.62997 6.21072 1237 ft 0 kts 64°
2026-05-06 18:38 49.62999 6.21078 1237 ft 0 kts 63°
2026-05-06 18:39 49.63004 6.21101 1237 ft 4 kts 90°
2026-05-06 18:39 49.62971 6.21139 1236 ft 8 kts 155°
2026-05-06 18:39 49.62944 6.21220 1236 ft 11 kts 62°
2026-05-06 18:40 49.63041 6.21524 1232 ft 19 kts 63°
2026-05-06 18:40 49.63107 6.21737 1228 ft 22 kts 63°
2026-05-06 18:40 49.63160 6.21910 1226 ft 12 kts 64°
2026-05-06 18:40 49.63161 6.22041 1224 ft 10 kts 148°
2026-05-06 18:41 49.63078 6.22109 1223 ft 15 kts 149°
2026-05-06 18:41 49.63004 6.22117 1223 ft 9 kts 231°
2026-05-06 18:41 49.62998 6.22102 1223 ft 0 kts 241°
2026-05-06 18:41 49.62997 6.22102 1223 ft 0 kts 241°
2026-05-06 18:42 49.62973 6.22035 1223 ft 39 kts 240°
2026-05-06 18:42 49.62651 6.21169 1236 ft 139 kts 240°
2026-05-06 18:42 49.62087 6.19646 1678 ft 178 kts 242°
2026-05-06 18:42 49.61433 6.17900 2455 ft 201 kts 241°
2026-05-06 18:43 49.60680 6.15957 3268 ft 217 kts 242°
2026-05-06 18:43 49.60229 6.13798 3962 ft 220 kts 272°
2026-05-06 18:43 49.60665 6.11429 4094 ft 238 kts 307°
2026-05-06 18:43 49.61889 6.09807 4069 ft 231 kts 338°
2026-05-06 18:44 49.63457 6.09522 3986 ft 230 kts 11°
2026-05-06 18:44 49.64872 6.10667 3926 ft 231 kts 39°
2026-05-06 18:44 49.66040 6.12371 3921 ft 234 kts 42°
2026-05-06 18:44 49.67199 6.14161 4003 ft 234 kts 42°
2026-05-06 18:45 49.68361 6.15958 4062 ft 233 kts 42°
2026-05-06 18:45 49.69477 6.17696 4053 ft 228 kts 43°
2026-05-06 18:45 49.70585 6.19445 4012 ft 226 kts 43°
2026-05-06 18:45 49.71265 6.20694 3993 ft 226 kts 54°
2026-05-06 18:46 49.72184 6.23635 3956 ft 228 kts 63°
2026-05-06 18:46 49.72830 6.25875 3988 ft 228 kts 63°
2026-05-06 18:46 49.73476 6.28108 4002 ft 228 kts 62°
2026-05-06 18:46 49.74139 6.30379 3985 ft 229 kts 63°
2026-05-06 18:47 49.74791 6.32627 3959 ft 229 kts 62°
2026-05-06 18:47 49.75366 6.34965 3834 ft 235 kts 76°
2026-05-06 18:47 49.75293 6.37487 3531 ft 240 kts 107°
2026-05-06 18:47 49.74332 6.39554 3249 ft 241 kts 142°
2026-05-06 18:48 49.72797 6.40379 3055 ft 233 kts 181°
2026-05-06 18:48 49.71291 6.39745 2961 ft 222 kts 216°
2026-05-06 18:48 49.70033 6.38398 2854 ft 217 kts 213°
2026-05-06 18:48 49.68788 6.37126 2799 ft 209 kts 222°
2026-05-06 18:49 49.67880 6.35361 2736 ft 209 kts 243°
2026-05-06 18:49 49.67164 6.33384 2694 ft 209 kts 243°
2026-05-06 18:49 49.66450 6.31448 2461 ft 209 kts 243°
2026-05-06 18:49 49.65724 6.29497 2143 ft 206 kts 243°
2026-05-06 18:50 49.65042 6.27663 1865 ft 186 kts 243°
2026-05-06 18:50 49.64436 6.26015 1593 ft 166 kts 243°
2026-05-06 18:50 49.63916 6.24590 1431 ft 144 kts 244°
2026-05-06 18:50 49.63426 6.23255 1228 ft 137 kts 243°
2026-05-06 18:51 49.62988 6.22066 1224 ft 137 kts 241°
2026-05-06 18:51 49.62425 6.20591 1666 ft 173 kts 243°
2026-05-06 18:51 49.61778 6.18903 2370 ft 199 kts 242°
2026-05-06 18:51 49.61013 6.16939 2980 ft 239 kts 242°
2026-05-06 18:52 49.60238 6.14588 3164 ft 242 kts 258°
2026-05-06 18:52 49.60217 6.12070 3176 ft 232 kts 290°
2026-05-06 18:52 49.61071 6.10091 3077 ft 225 kts 324°
2026-05-06 18:52 49.62500 6.09241 2999 ft 218 kts 357°
2026-05-06 18:53 49.63955 6.09737 2985 ft 215 kts 24°
2026-05-06 18:53 49.65305 6.10735 3011 ft 220 kts 23°
2026-05-06 18:53 49.66705 6.11748 3108 ft 222 kts 23°
2026-05-06 18:53 49.68126 6.12765 3108 ft 224 kts 23°
2026-05-06 18:54 49.69477 6.13919 3117 ft 223 kts 38°
2026-05-06 18:54 49.70388 6.15830 3103 ft 225 kts 63°
2026-05-06 18:54 49.71034 6.18079 3042 ft 226 kts 63°
2026-05-06 18:54 49.71670 6.20290 3002 ft 226 kts 63°
2026-05-06 18:55 49.72295 6.22468 3052 ft 216 kts 63°
2026-05-06 18:55 49.72880 6.24563 3013 ft 207 kts 63°
2026-05-06 18:55 49.73439 6.26580 2964 ft 201 kts 62°
2026-05-06 18:55 49.73988 6.28558 2966 ft 203 kts 65°
2026-05-06 18:56 49.74239 6.30742 2983 ft 210 kts 90°
2026-05-06 18:56 49.73930 6.32967 2990 ft 214 kts 103°
2026-05-06 18:56 49.73512 6.35175 3021 ft 213 kts 102°
2026-05-06 18:56 49.73098 6.37350 2977 ft 205 kts 103°
2026-05-06 18:57 49.72497 6.39305 2985 ft 201 kts 128°
2026-05-06 18:57 49.71305 6.40537 3014 ft 212 kts 162°
2026-05-06 18:57 49.69881 6.40559 3011 ft 201 kts 200°
2026-05-06 18:57 49.68899 6.39257 2988 ft 182 kts 249°
2026-05-06 18:58 49.68626 6.37406 2889 ft 173 kts 257°
2026-05-06 18:58 49.68054 6.35734 2794 ft 184 kts 241°
2026-05-06 18:58 49.67387 6.34034 2745 ft 182 kts 243°
2026-05-06 18:58 49.66778 6.32390 2532 ft 167 kts 243°
2026-05-06 18:59 49.66231 6.30911 2307 ft 149 kts 243°
2026-05-06 18:59 49.65727 6.29512 2161 ft 143 kts 245°
2026-05-06 18:59 49.65236 6.28196 1924 ft 143 kts 242°
2026-05-06 18:59 49.64736 6.26843 1736 ft 144 kts 243°
2026-05-06 19:00 49.64248 6.25496 1550 ft 144 kts 243°
2026-05-06 19:00 49.63751 6.24155 1355 ft 146 kts 241°
2026-05-06 19:00 49.63265 6.22820 1235 ft 130 kts 243°
2026-05-06 19:00 49.62949 6.21961 1269 ft 152 kts 243°
2026-05-06 19:01 49.62114 6.19720 1804 ft 213 kts 243°
2026-05-06 19:01 49.61335 6.17618 2743 ft 237 kts 243°
2026-05-06 19:01 49.60701 6.15912 2905 ft 246 kts 243°
2026-05-06 19:01 49.59875 6.13590 3048 ft 244 kts 250°
2026-05-06 19:02 49.59558 6.11049 3156 ft 238 kts 277°
2026-05-06 19:02 49.60030 6.08705 3182 ft 227 kts 306°
2026-05-06 19:02 49.61194 6.07163 3149 ft 219 kts 339°
2026-05-06 19:02 49.62661 6.06740 3151 ft 212 kts 354°
2026-05-06 19:03 49.64131 6.06465 3105 ft 210 kts 354°
2026-05-06 19:03 49.65564 6.06189 3061 ft 209 kts 353°
2026-05-06 19:03 49.67024 6.05883 3004 ft 208 kts 353°
2026-05-06 19:03 49.68434 6.05589 2950 ft 203 kts 353°
2026-05-06 19:04 49.69853 6.05322 2912 ft 204 kts 353°
2026-05-06 19:04 49.71284 6.05043 2934 ft 211 kts 353°
2026-05-06 19:04 49.72751 6.04747 3052 ft 213 kts 353°
2026-05-06 19:04 49.74220 6.04468 3104 ft 209 kts 353°
2026-05-06 19:05 49.75629 6.04183 3085 ft 204 kts 353°
2026-05-06 19:05 49.77030 6.03899 3072 ft 198 kts 353°
2026-05-06 19:05 49.78383 6.03637 3050 ft 193 kts 352°
2026-05-06 19:05 49.79710 6.03381 3021 ft 196 kts 353°
2026-05-06 19:06 49.81115 6.03366 3018 ft 206 kts 14°
2026-05-06 19:06 49.82317 6.04592 3037 ft 217 kts 51°
2026-05-06 19:06 49.82981 6.06700 3066 ft 215 kts 63°
2026-05-06 19:06 49.83569 6.08832 3015 ft 214 kts 63°
2026-05-06 19:07 49.84164 6.10946 3007 ft 211 kts 62°
2026-05-06 19:07 49.84764 6.13021 2992 ft 210 kts 62°
2026-05-06 19:07 49.85207 6.15181 2961 ft 217 kts 84°
2026-05-06 19:07 49.84925 6.17553 2974 ft 227 kts 103°
2026-05-06 19:08 49.84493 6.19905 3041 ft 227 kts 102°
2026-05-06 19:08 49.84057 6.22261 3028 ft 227 kts 103°
2026-05-06 19:08 49.83613 6.24628 3032 ft 227 kts 103°
2026-05-06 19:08 49.83175 6.26996 2975 ft 229 kts 103°
2026-05-06 19:09 49.82733 6.29339 2961 ft 227 kts 102°
2026-05-06 19:09 49.82304 6.31656 2942 ft 221 kts 103°
2026-05-06 19:09 49.81891 6.33921 2962 ft 214 kts 102°
2026-05-06 19:09 49.81458 6.36126 2934 ft 212 kts 109°
2026-05-06 19:10 49.80613 6.38009 2945 ft 219 kts 137°
2026-05-06 19:10 49.79275 6.39214 2943 ft 223 kts 152°
2026-05-06 19:10 49.77867 6.40255 2961 ft 221 kts 153°
2026-05-06 19:10 49.76530 6.41248 2960 ft 203 kts 153°
2026-05-06 19:11 49.75311 6.42142 2908 ft 186 kts 152°
2026-05-06 19:11 49.74073 6.42599 2849 ft 183 kts 185°
2026-05-06 19:11 49.72873 6.41919 2843 ft 190 kts 214°
2026-05-06 19:11 49.71763 6.40882 2914 ft 180 kts 213°
2026-05-06 19:12 49.70687 6.39903 2902 ft 176 kts 212°
2026-05-06 19:12 49.69663 6.38897 2875 ft 172 kts 220°
2026-05-06 19:12 49.68852 6.37569 2842 ft 174 kts 242°
2026-05-06 19:12 49.68200 6.35959 2824 ft 174 kts 243°
2026-05-06 19:13 49.67609 6.34412 2799 ft 163 kts 244°
2026-05-06 19:13 49.67017 6.32855 2709 ft 167 kts 243°
2026-05-06 19:13 49.66427 6.31312 2469 ft 161 kts 243°
2026-05-06 19:13 49.65891 6.29905 2269 ft 153 kts 243°
2026-05-06 19:14 49.65366 6.28508 2055 ft 149 kts 243°
2026-05-06 19:14 49.64820 6.27071 2338 ft 161 kts 243°
2026-05-06 19:14 49.64241 6.25556 2829 ft 177 kts 243°
2026-05-06 19:14 49.63553 6.23653 2995 ft 228 kts 244°
2026-05-06 19:15 49.62742 6.21390 3131 ft 246 kts 243°
2026-05-06 19:15 49.61878 6.19080 3118 ft 249 kts 242°
2026-05-06 19:15 49.61264 6.16677 3129 ft 236 kts 267°
2026-05-06 19:15 49.61592 6.14265 3132 ft 235 kts 306°
2026-05-06 19:16 49.62848 6.12734 3105 ft 232 kts 343°
2026-05-06 19:16 49.64429 6.12745 3101 ft 226 kts 20°
2026-05-06 19:16 49.65830 6.13720 3043 ft 216 kts 23°
2026-05-06 19:16 49.67195 6.14675 2965 ft 209 kts 23°
2026-05-06 19:17 49.68483 6.15574 2926 ft 200 kts 22°
2026-05-06 19:17 49.69601 6.16862 2942 ft 207 kts 49°
2026-05-06 19:17 49.70303 6.18839 3007 ft 212 kts 62°
2026-05-06 19:17 49.70902 6.20926 3083 ft 215 kts 63°
2026-05-06 19:18 49.71517 6.23092 3105 ft 220 kts 63°
2026-05-06 19:18 49.72149 6.25277 3110 ft 225 kts 63°
2026-05-06 19:18 49.72787 6.27494 3109 ft 225 kts 62°
2026-05-06 19:18 49.73430 6.29735 3032 ft 227 kts 63°
2026-05-06 19:19 49.74068 6.31955 2984 ft 229 kts 62°
2026-05-06 19:19 49.74720 6.34197 2991 ft 227 kts 62°
2026-05-06 19:19 49.75337 6.36443 3004 ft 226 kts 71°
2026-05-06 19:19 49.75319 6.38860 3018 ft 225 kts 107°
2026-05-06 19:20 49.74387 6.40697 3010 ft 221 kts 148°
2026-05-06 19:20 49.72918 6.41246 2984 ft 214 kts 188°
2026-05-06 19:20 49.71583 6.40375 2929 ft 210 kts 213°
2026-05-06 19:20 49.70358 6.39237 2904 ft 197 kts 213°
2026-05-06 19:21 49.69161 6.38122 2853 ft 204 kts 216°
2026-05-06 19:21 49.68276 6.36559 2896 ft 186 kts 243°
2026-05-06 19:21 49.67672 6.34819 2856 ft 177 kts 246°
2026-05-06 19:21 49.67093 6.33232 2696 ft 160 kts 244°
2026-05-06 19:22 49.66565 6.31802 2486 ft 146 kts 245°
2026-05-06 19:22 49.66073 6.30466 2265 ft 152 kts 244°
2026-05-06 19:22 49.65546 6.29038 2056 ft 152 kts 243°
2026-05-06 19:22 49.65030 6.27660 1858 ft 145 kts 243°
2026-05-06 19:23 49.64530 6.26262 1646 ft 149 kts 245°
2026-05-06 19:23 49.64023 6.24877 1476 ft 150 kts 243°
2026-05-06 19:23 49.63501 6.23477 1275 ft 147 kts 243°
2026-05-06 19:23 49.63036 6.22228 1222 ft 123 kts 242°
2026-05-06 19:24 49.62522 6.20894 1516 ft 169 kts 242°
2026-05-06 19:24 49.61857 6.19101 2167 ft 211 kts 243°
2026-05-06 19:24 49.61104 6.17024 2829 ft 231 kts 244°
2026-05-06 19:24 49.60461 6.14790 3095 ft 226 kts 263°
2026-05-06 19:25 49.60602 6.12415 3188 ft 223 kts 297°
2026-05-06 19:25 49.61597 6.10611 3133 ft 227 kts 331°
2026-05-06 19:25 49.63109 6.10108 3108 ft 219 kts
2026-05-06 19:25 49.64452 6.11040 3105 ft 211 kts 31°
2026-05-06 19:26 49.65641 6.12337 3074 ft 206 kts 33°
2026-05-06 19:26 49.66796 6.13627 3001 ft 202 kts 33°
2026-05-06 19:26 49.67938 6.14870 2869 ft 201 kts 33°
2026-05-06 19:26 49.68955 6.16310 2865 ft 197 kts 56°
2026-05-06 19:27 49.69554 6.18195 2850 ft 193 kts 60°
2026-05-06 19:27 49.70396 6.19929 2922 ft 221 kts 34°
2026-05-06 19:27 49.71936 6.20845 2975 ft 259 kts
2026-05-06 19:27 49.73771 6.20665 2972 ft 258 kts 353°
2026-05-06 19:28 49.75494 6.20331 2998 ft 237 kts 353°
2026-05-06 19:28 49.77064 6.20023 3010 ft 219 kts 353°
2026-05-06 19:28 49.78561 6.19737 3001 ft 216 kts 353°
2026-05-06 19:28 49.80065 6.19451 2991 ft 216 kts 353°
2026-05-06 19:29 49.81553 6.19164 2989 ft 215 kts 353°
2026-05-06 19:29 49.83047 6.18883 2991 ft 215 kts 353°
2026-05-06 19:29 49.84517 6.18609 2993 ft 210 kts 353°
2026-05-06 19:29 49.85960 6.18334 2995 ft 206 kts 353°
2026-05-06 19:30 49.87366 6.18064 2988 ft 205 kts 353°
2026-05-06 19:30 49.88766 6.18310 2977 ft 205 kts 25°
2026-05-06 19:30 49.89753 6.19881 2987 ft 210 kts 64°
2026-05-06 19:30 49.89852 6.22161 2989 ft 219 kts 103°
2026-05-06 19:31 49.89267 6.24345 2995 ft 223 kts 112°
2026-05-06 19:31 49.88584 6.26515 2987 ft 222 kts 112°
2026-05-06 19:31 49.87214 6.30838 2996 ft 224 kts 113°
2026-05-06 19:32 49.86530 6.33010 2990 ft 224 kts 113°
2026-05-06 19:32 49.85841 6.35205 2995 ft 224 kts 112°
2026-05-06 19:32 49.85149 6.37399 2998 ft 224 kts 112°
2026-05-06 19:32 49.84289 6.39393 2990 ft 228 kts 137°
2026-05-06 19:33 49.82855 6.40501 2987 ft 229 kts 161°
2026-05-06 19:33 49.81332 6.41219 2984 ft 226 kts 163°
2026-05-06 19:33 49.79843 6.41903 2996 ft 221 kts 163°
2026-05-06 19:33 49.78376 6.42572 2996 ft 221 kts 162°
2026-05-06 19:34 49.76882 6.43251 2998 ft 221 kts 163°
2026-05-06 19:34 49.75402 6.43880 2996 ft 220 kts 171°
2026-05-06 19:34 49.73907 6.43593 2991 ft 217 kts 206°
2026-05-06 19:34 49.72585 6.42481 2999 ft 217 kts 212°
2026-05-06 19:35 49.71308 6.41307 3002 ft 209 kts 213°
2026-05-06 19:35 49.70096 6.40175 3024 ft 197 kts 216°
2026-05-06 19:35 49.69176 6.38666 2997 ft 192 kts 241°
2026-05-06 19:35 49.68501 6.36892 3003 ft 192 kts 243°
2026-05-06 19:36 49.67816 6.35110 2927 ft 191 kts 243°
2026-05-06 19:36 49.67166 6.33377 2669 ft 183 kts 243°
2026-05-06 19:36 49.66557 6.31739 2435 ft 166 kts 244°
2026-05-06 19:36 49.66018 6.30293 2264 ft 146 kts 244°
2026-05-06 19:37 49.65519 6.28939 2038 ft 144 kts 244°
2026-05-06 19:37 49.65026 6.27610 1830 ft 141 kts 244°
2026-05-06 19:37 49.64545 6.26304 1654 ft 140 kts 244°
2026-05-06 19:37 49.64220 6.25431 1531 ft 139 kts 244°
2026-05-06 19:38 49.63585 6.23686 1283 ft 138 kts 244°
2026-05-06 19:38 49.63125 6.22462 1221 ft 118 kts 239°
2026-05-06 19:38 49.62825 6.21635 1230 ft 64 kts 241°
2026-05-06 19:38 49.62687 6.21244 1235 ft 36 kts 248°
2026-05-06 19:39 49.62647 6.20918 1237 ft 23 kts 270°
2026-05-06 19:39 49.62670 6.20761 1237 ft 12 kts 321°
2026-05-06 19:39 49.62756 6.20748 1238 ft 13 kts 21°
2026-05-06 19:39 49.62822 6.20826 1239 ft 12 kts 66°
2026-05-06 19:40 49.62864 6.20960 1238 ft 15 kts 64°
2026-05-06 19:40 49.62917 6.21065 1237 ft 11 kts
2026-05-06 19:40 49.62954 6.21038 1238 ft 3 kts 333°
2026-05-06 19:40 49.62983 6.21029 1238 ft 5 kts 42°
2026-05-06 19:41 49.62997 6.21072 1238 ft 0 kts 64°